Time,TemperatureF,DewpointF,PressureIn,WindDirection,WindDirectionDegrees,WindSpeedMPH,WindSpeedGustMPH,Humidity,HourlyPrecipIn,Conditions,Clouds,dailyrainin,SoftwareType,DateUTC
2013-11-18 00:00:00,56.8,56.8,29.92,North,350,1.0,1.0,100,0.00,,OVC055,0.80,VWS V14.01,2013-11-18 05:00:00,
2013-11-18 00:01:00,57.2,57.2,29.92,North,350,0.0,1.0,100,0.00,,OVC055,0.00,VWS V14.01,2013-11-18 05:01:00,
2013-11-18 00:06:00,56.8,56.8,29.92,North,350,0.0,1.0,100,0.00,,OVC055,0.00,VWS V14.01,2013-11-18 05:06:00,
2013-11-18 00:11:00,56.9,56.9,29.92,North,350,0.0,1.0,100,0.00,,OVC055,0.00,VWS V14.01,2013-11-18 05:11:00,
2013-11-18 00:16:00,57.2,57.2,29.92,SW,220,0.0,2.0,100,0.00,,OVC055,0.00,VWS V14.01,2013-11-18 05:16:00,
2013-11-18 00:21:00,57.9,57.9,29.91,South,179,0.0,2.0,100,0.00,,OVC055,0.00,VWS V14.01,2013-11-18 05:21:00,
2013-11-18 00:26:00,58.4,58.4,29.91,South,181,0.0,2.0,100,0.00,,OVC055,0.00,VWS V14.01,2013-11-18 05:26:00,
2013-11-18 00:30:00,58.4,58.4,29.91,South,181,0.0,2.0,100,0.00,,OVC055,0.00,VWS V14.01,2013-11-18 05:30:00,
2013-11-18 00:31:00,58.5,58.5,29.91,South,181,0.0,1.0,100,0.00,,OVC055,0.00,VWS V14.01,2013-11-18 05:31:00,
2013-11-18 00:36:00,58.7,58.7,29.91,South,181,0.0,1.0,100,0.00,,OVC055,0.00,VWS V14.01,2013-11-18 05:36:00,
2013-11-18 00:41:00,58.9,58.9,29.90,WSW,245,0.0,3.0,100,0.00,,OVC055,0.00,VWS V14.01,2013-11-18 05:41:00,
2013-11-18 00:46:00,59.1,59.1,29.91,WSW,245,0.0,3.0,100,0.00,,OVC055,0.00,VWS V14.01,2013-11-18 05:46:00,
2013-11-18 00:51:00,59.1,59.1,29.90,WSW,245,0.0,3.0,100,0.00,,OVC055,0.00,VWS V14.01,2013-11-18 05:51:00,
2013-11-18 00:56:00,59.1,59.1,29.90,NW,320,0.0,3.0,100,0.00,,OVC055,0.00,VWS V14.01,2013-11-18 05:56:00,
2013-11-18 01:00:00,59.1,59.1,29.90,NW,320,0.0,3.0,100,0.00,,OVC055,0.00,VWS V14.01,2013-11-18 06:00:00,
2013-11-18 01:01:00,59.1,59.1,29.90,South,179,1.0,3.0,100,0.00,,OVC055,0.00,VWS V14.01,2013-11-18 06:01:00,
2013-11-18 01:06:00,59.2,59.2,29.90,WSW,244,0.0,4.0,100,0.00,,OVC055,0.00,VWS V14.01,2013-11-18 06:06:00,
2013-11-18 01:11:00,59.2,59.2,29.89,WSW,246,0.0,4.0,100,0.00,,OVC055,0.00,VWS V14.01,2013-11-18 06:11:00,
2013-11-18 01:16:00,59.1,59.1,29.89,WSW,246,0.0,4.0,100,0.00,,OVC055,0.00,VWS V14.01,2013-11-18 06:16:00,
2013-11-18 01:21:00,59.1,59.1,29.89,West,264,0.0,4.0,100,0.00,,OVC055,0.00,VWS V14.01,2013-11-18 06:21:00,
2013-11-18 01:26:00,59.0,59.0,29.89,South,186,1.0,4.0,100,0.00,,OVC055,0.00,VWS V14.01,2013-11-18 06:26:00,
2013-11-18 01:30:00,59.0,59.0,29.89,South,186,0.0,4.0,100,0.00,,OVC055,0.00,VWS V14.01,2013-11-18 06:30:00,
2013-11-18 01:31:00,59.0,59.0,29.89,WSW,245,0.0,2.0,100,0.00,,OVC055,0.00,VWS V14.01,2013-11-18 06:31:00,
2013-11-18 01:36:00,59.0,59.0,29.89,WSW,254,3.0,3.0,100,0.00,,OVC055,0.00,VWS V14.01,2013-11-18 06:36:00,
2013-11-18 01:41:00,59.1,59.1,29.88,West,259,0.0,4.0,100,0.00,,OVC055,0.00,VWS V14.01,2013-11-18 06:41:00,
2013-11-18 01:46:00,59.1,59.1,29.89,West,259,0.0,4.0,100,0.00,,OVC055,0.00,VWS V14.01,2013-11-18 06:46:00,
2013-11-18 01:51:00,59.0,59.0,29.89,West,269,0.0,4.0,100,0.00,,OVC055,0.00,VWS V14.01,2013-11-18 06:51:00,
2013-11-18 01:56:00,59.0,59.0,29.89,West,269,0.0,4.0,100,0.00,,OVC055,0.00,VWS V14.01,2013-11-18 06:56:00,
2013-11-18 02:00:00,58.9,58.9,29.89,West,269,1.0,4.0,100,0.00,,OVC055,0.00,VWS V14.01,2013-11-18 07:00:00,
2013-11-18 02:01:00,59.0,59.0,29.89,West,269,2.0,2.0,100,0.00,,OVC055,0.00,VWS V14.01,2013-11-18 07:01:00,
2013-11-18 02:06:00,59.0,59.0,29.88,West,265,0.0,3.0,100,0.00,,OVC055,0.00,VWS V14.01,2013-11-18 07:06:00,
2013-11-18 02:11:00,58.9,58.9,29.88,West,265,0.0,3.0,100,0.00,,OVC055,0.00,VWS V14.01,2013-11-18 07:11:00,
2013-11-18 02:16:00,58.9,58.9,29.88,South,175,0.0,3.0,100,0.00,,OVC055,0.00,VWS V14.01,2013-11-18 07:16:00,
2013-11-18 02:21:00,59.0,59.0,29.88,South,175,0.0,3.0,100,0.00,,OVC055,0.00,VWS V14.01,2013-11-18 07:21:00,
2013-11-18 02:26:00,59.1,59.1,29.88,South,186,0.0,3.0,100,0.00,,OVC055,0.00,VWS V14.01,2013-11-18 07:26:00,
2013-11-18 02:30:00,59.1,59.1,29.88,South,187,1.0,3.0,100,0.00,,OVC055,0.00,VWS V14.01,2013-11-18 07:30:00,
2013-11-18 02:31:00,59.0,59.0,29.88,SW,229,1.0,3.0,100,0.00,,OVC055,0.00,VWS V14.01,2013-11-18 07:31:00,
2013-11-18 02:36:00,59.0,59.0,29.88,WSW,250,1.0,3.0,100,0.00,,OVC055,0.00,VWS V14.01,2013-11-18 07:36:00,
2013-11-18 02:40:00,59.0,59.0,29.88,WSW,250,1.0,3.0,100,0.00,,OVC055,0.00,VWS V14.01,2013-11-18 07:40:00,
2013-11-18 02:45:00,59.0,59.0,29.88,WSW,250,0.0,3.0,100,0.00,,OVC055,0.00,VWS V14.01,2013-11-18 07:45:00,
2013-11-18 02:50:00,58.9,58.9,29.87,WSW,250,1.0,3.0,100,0.00,,OVC055,0.00,VWS V14.01,2013-11-18 07:50:00,
2013-11-18 02:55:00,58.7,58.7,29.87,WSW,250,0.0,3.0,100,0.00,,OVC055,0.00,VWS V14.01,2013-11-18 07:55:00,
2013-11-18 03:00:00,58.6,58.6,29.88,WSW,250,0.0,0.0,100,0.00,,OVC055,0.00,VWS V14.01,2013-11-18 08:00:00,
2013-11-18 03:05:00,58.6,58.6,29.88,WSW,250,0.0,0.0,100,0.00,,OVC055,0.00,VWS V14.01,2013-11-18 08:05:00,
2013-11-18 03:10:00,58.7,58.7,29.88,WSW,250,0.0,0.0,100,0.00,,OVC055,0.00,VWS V14.01,2013-11-18 08:10:00,
2013-11-18 03:15:00,58.7,58.7,29.89,WSW,250,0.0,0.0,100,0.00,,OVC055,0.00,VWS V14.01,2013-11-18 08:15:00,
2013-11-18 03:20:00,58.7,58.7,29.90,WSW,250,0.0,1.0,100,0.01,,OVC055,0.01,VWS V14.01,2013-11-18 08:20:00,
2013-11-18 03:25:00,58.8,58.8,29.90,WSW,251,0.0,4.0,100,0.01,,OVC055,0.01,VWS V14.01,2013-11-18 08:25:00,
2013-11-18 03:30:00,58.9,58.9,29.91,North,9,6.0,6.0,100,0.01,,OVC055,0.01,VWS V14.01,2013-11-18 08:30:00,
2013-11-18 03:35:00,59.1,59.1,29.91,NE,51,3.0,10.0,100,0.02,,OVC055,0.02,VWS V14.01,2013-11-18 08:35:00,
2013-11-18 03:40:00,59.3,59.3,29.91,NE,51,0.0,10.0,100,0.02,,OVC055,0.02,VWS V14.01,2013-11-18 08:40:00,
2013-11-18 03:45:00,59.2,59.2,29.91,NE,51,1.0,10.0,100,0.02,,OVC055,0.02,VWS V14.01,2013-11-18 08:45:00,
2013-11-18 03:50:00,59.0,59.0,29.90,NE,51,0.0,10.0,100,0.02,,OVC055,0.02,VWS V14.01,2013-11-18 08:50:00,
2013-11-18 03:55:00,58.9,58.9,29.90,East,92,0.0,10.0,100,0.02,,OVC055,0.02,VWS V14.01,2013-11-18 08:55:00,
2013-11-18 04:00:00,58.8,58.8,29.90,East,92,1.0,2.0,100,0.02,,OVC055,0.02,VWS V14.01,2013-11-18 09:00:00,
2013-11-18 04:05:00,58.7,58.7,29.91,East,90,1.0,3.0,100,0.02,,OVC055,0.02,VWS V14.01,2013-11-18 09:05:00,
2013-11-18 04:10:00,58.6,58.6,29.91,East,88,2.0,3.0,100,0.02,,OVC055,0.02,VWS V14.01,2013-11-18 09:10:00,
2013-11-18 04:15:00,58.4,58.4,29.91,NE,53,4.0,4.0,100,0.02,,OVC055,0.02,VWS V14.01,2013-11-18 09:15:00,
2013-11-18 04:20:00,58.4,58.4,29.91,NE,43,6.0,6.0,100,0.02,,OVC055,0.02,VWS V14.01,2013-11-18 09:20:00,
2013-11-18 04:25:00,58.4,58.1,29.91,NE,42,6.0,8.0,99,0.02,,OVC055,0.02,VWS V14.01,2013-11-18 09:25:00,
2013-11-18 04:30:00,58.5,57.9,29.91,NE,51,2.0,5.0,98,0.01,,OVC055,0.02,VWS V14.01,2013-11-18 09:30:00,
2013-11-18 04:35:00,58.4,57.8,29.91,NE,35,1.0,7.0,98,0.01,,OVC055,0.02,VWS V14.01,2013-11-18 09:35:00,
2013-11-18 04:40:00,58.3,57.7,29.91,NE,34,4.0,7.0,98,0.01,,OVC055,0.02,VWS V14.01,2013-11-18 09:40:00,
2013-11-18 04:45:00,57.9,57.1,29.91,NE,46,2.0,7.0,97,0.01,,OVC055,0.02,VWS V14.01,2013-11-18 09:45:00,
2013-11-18 04:50:00,57.6,56.5,29.91,ENE,57,5.0,7.0,96,0.01,,OVC055,0.02,VWS V14.01,2013-11-18 09:50:00,
2013-11-18 04:55:00,57.4,56.0,29.91,NE,54,3.0,7.0,95,0.01,,OVC055,0.02,VWS V14.01,2013-11-18 09:55:00,
2013-11-18 05:00:00,57.0,55.9,29.90,NE,54,0.0,0.0,96,0.00,,OVC055,0.02,VWS V14.01,2013-11-18 10:00:00,
2013-11-18 05:05:00,56.4,55.6,29.90,NE,54,1.0,1.0,97,0.00,,OVC055,0.02,VWS V14.01,2013-11-18 10:05:00,
2013-11-18 05:10:00,56.0,55.5,29.90,NE,54,0.0,1.0,98,0.00,,OVC055,0.02,VWS V14.01,2013-11-18 10:10:00,
2013-11-18 05:15:00,55.6,55.0,29.91,NE,54,0.0,1.0,98,0.00,,OVC055,0.02,VWS V14.01,2013-11-18 10:15:00,
2013-11-18 05:20:00,55.3,54.8,29.91,ENE,58,0.0,2.0,98,0.00,,OVC055,0.02,VWS V14.01,2013-11-18 10:20:00,
2013-11-18 05:25:00,55.0,54.7,29.92,ENE,60,1.0,2.0,99,0.00,,OVC055,0.02,VWS V14.01,2013-11-18 10:25:00,
2013-11-18 05:30:00,54.6,54.0,29.92,South,173,1.0,2.0,98,0.00,,OVC055,0.02,VWS V14.01,2013-11-18 10:30:00,
2013-11-18 05:35:00,54.2,52.8,29.92,South,175,2.0,3.0,95,0.00,,OVC055,0.02,VWS V14.01,2013-11-18 10:35:00,
2013-11-18 05:40:00,54.0,52.6,29.91,South,174,1.0,3.0,95,0.00,,OVC055,0.02,VWS V14.01,2013-11-18 10:40:00,
2013-11-18 05:45:00,53.7,52.9,29.91,South,175,0.0,3.0,97,0.00,,OVC055,0.02,VWS V14.01,2013-11-18 10:45:00,
2013-11-18 05:50:00,53.5,53.0,29.90,South,175,1.0,3.0,98,0.00,,OVC055,0.02,VWS V14.01,2013-11-18 10:50:00,
2013-11-18 05:55:00,53.3,53.0,29.91,South,175,0.0,3.0,99,0.00,,OVC055,0.02,VWS V14.01,2013-11-18 10:55:00,
2013-11-18 06:00:00,53.0,52.5,29.90,South,175,0.0,1.0,98,0.00,,OVC055,0.02,VWS V14.01,2013-11-18 11:00:00,
2013-11-18 06:05:00,52.6,52.3,29.91,South,175,0.0,1.0,99,0.00,,OVC055,0.02,VWS V14.01,2013-11-18 11:05:00,
2013-11-18 06:10:00,52.3,52.0,29.91,South,175,1.0,1.0,99,0.00,,OVC055,0.02,VWS V14.01,2013-11-18 11:10:00,
2013-11-18 06:15:00,52.1,51.8,29.91,South,175,0.0,1.0,99,0.00,,OVC055,0.02,VWS V14.01,2013-11-18 11:15:00,
2013-11-18 06:20:00,51.9,51.6,29.92,South,175,0.0,1.0,99,0.00,,OVC055,0.02,VWS V14.01,2013-11-18 11:20:00,
2013-11-18 06:25:00,51.7,51.4,29.92,South,175,0.0,1.0,99,0.00,,OVC055,0.02,VWS V14.01,2013-11-18 11:25:00,
2013-11-18 06:30:00,51.5,51.2,29.91,South,174,0.0,0.0,99,0.00,,OVC055,0.02,VWS V14.01,2013-11-18 11:30:00,
2013-11-18 06:35:00,51.5,51.5,29.92,South,175,1.0,1.0,100,0.00,,OVC055,0.02,VWS V14.01,2013-11-18 11:35:00,
2013-11-18 06:40:00,51.2,50.9,29.92,South,174,0.0,2.0,99,0.00,,OVC055,0.02,VWS V14.01,2013-11-18 11:40:00,
2013-11-18 06:45:00,50.9,50.6,29.93,South,175,1.0,2.0,99,0.00,,OVC055,0.02,VWS V14.01,2013-11-18 11:45:00,
2013-11-18 06:50:00,50.8,50.8,29.93,South,175,0.0,2.0,100,0.00,,OVC055,0.02,VWS V14.01,2013-11-18 11:50:00,
2013-11-18 06:55:00,50.6,50.6,29.93,NNE,30,1.0,3.0,100,0.00,,OVC055,0.02,VWS V14.01,2013-11-18 11:55:00,
2013-11-18 07:00:00,49.8,49.5,29.93,NNE,30,0.0,0.0,99,0.00,,OVC055,0.02,VWS V14.01,2013-11-18 12:00:00,
2013-11-18 07:05:00,49.7,49.7,29.93,NNE,30,0.0,1.0,100,0.00,,OVC055,0.02,VWS V14.01,2013-11-18 12:05:00,
2013-11-18 07:10:00,49.7,49.7,29.93,NNE,30,1.0,2.0,100,0.00,,OVC055,0.02,VWS V14.01,2013-11-18 12:10:00,
2013-11-18 07:15:00,49.7,49.7,29.94,NNE,30,0.0,2.0,100,0.00,,OVC055,0.02,VWS V14.01,2013-11-18 12:15:00,
2013-11-18 07:20:00,49.7,49.7,29.94,NNE,30,0.0,2.0,100,0.00,,OVC055,0.02,VWS V14.01,2013-11-18 12:20:00,
2013-11-18 07:25:00,49.4,49.4,29.94,NNE,30,2.0,2.0,100,0.00,,OVC055,0.02,VWS V14.01,2013-11-18 12:25:00,
2013-11-18 07:30:00,49.2,49.2,29.94,NNE,30,0.0,0.0,100,0.00,,OVC055,0.02,VWS V14.01,2013-11-18 12:30:00,
2013-11-18 07:35:00,49.0,49.0,29.94,NNE,30,0.0,1.0,100,0.00,,OVC055,0.02,VWS V14.01,2013-11-18 12:35:00,
2013-11-18 07:40:00,48.9,48.9,29.95,NNE,30,0.0,1.0,100,0.00,,OVC055,0.02,VWS V14.01,2013-11-18 12:40:00,
2013-11-18 07:45:00,48.9,48.9,29.95,NNE,30,0.0,1.0,100,0.00,,OVC055,0.02,VWS V14.01,2013-11-18 12:45:00,
2013-11-18 07:50:00,48.7,48.7,29.95,NNE,30,0.0,1.0,100,0.00,,OVC055,0.02,VWS V14.01,2013-11-18 12:50:00,
2013-11-18 07:55:00,48.3,48.3,29.94,NNE,30,0.0,1.0,100,0.00,,OVC055,0.02,VWS V14.01,2013-11-18 12:55:00,
2013-11-18 08:00:00,48.3,48.3,29.94,NNE,30,1.0,1.0,100,0.00,,OVC055,0.02,VWS V14.01,2013-11-18 13:00:00,
2013-11-18 08:05:00,48.6,48.6,29.94,NNE,30,0.0,1.0,100,0.00,,OVC055,0.02,VWS V14.01,2013-11-18 13:05:00,
2013-11-18 08:10:00,48.9,48.9,29.94,NNE,30,0.0,1.0,100,0.00,,OVC055,0.02,VWS V14.01,2013-11-18 13:10:00,
2013-11-18 08:15:00,49.2,49.2,29.94,NNE,30,0.0,1.0,100,0.00,,OVC055,0.02,VWS V14.01,2013-11-18 13:15:00,
2013-11-18 08:20:00,49.5,49.5,29.94,NNE,30,0.0,1.0,100,0.01,,OVC055,0.03,VWS V14.01,2013-11-18 13:20:00,
2013-11-18 08:25:00,49.6,49.6,29.95,NNE,30,0.0,1.0,100,0.01,,OVC055,0.03,VWS V14.01,2013-11-18 13:25:00,
2013-11-18 08:29:00,49.6,49.6,29.94,NNE,30,0.0,0.0,100,0.01,,OVC055,0.03,VWS V14.01,2013-11-18 13:29:00,
2013-11-18 08:30:00,49.6,49.6,29.94,NNE,30,0.0,1.0,100,0.01,,OVC055,0.03,VWS V14.01,2013-11-18 13:30:00,
2013-11-18 08:34:00,49.7,49.7,29.94,NNE,30,0.0,0.0,100,0.01,,OVC055,0.03,VWS V14.01,2013-11-18 13:34:00,
2013-11-18 08:39:00,49.6,49.6,29.95,NNE,30,0.0,1.0,100,0.01,,OVC055,0.03,VWS V14.01,2013-11-18 13:39:00,
2013-11-18 08:44:00,49.4,49.4,29.94,NNE,30,0.0,1.0,100,0.01,,OVC055,0.03,VWS V14.01,2013-11-18 13:44:00,
2013-11-18 08:49:00,49.5,49.5,29.94,NNE,30,0.0,1.0,100,0.01,,OVC055,0.03,VWS V14.01,2013-11-18 13:49:00,
2013-11-18 08:54:00,49.7,49.7,29.94,NNE,30,0.0,1.0,100,0.01,,OVC055,0.03,VWS V14.01,2013-11-18 13:54:00,
2013-11-18 08:59:00,49.8,49.8,29.95,NNE,30,0.0,1.0,100,0.01,,OVC055,0.03,VWS V14.01,2013-11-18 13:59:00,
2013-11-18 09:00:00,49.7,49.7,29.94,NNE,30,0.0,1.0,100,0.01,,OVC055,0.03,VWS V14.01,2013-11-18 14:00:00,
2013-11-18 09:04:00,49.9,49.9,29.95,NNE,30,0.0,1.0,100,0.01,,OVC055,0.03,VWS V14.01,2013-11-18 14:04:00,
2013-11-18 09:09:00,49.9,49.9,29.95,NNE,30,0.0,1.0,100,0.01,,OVC055,0.03,VWS V14.01,2013-11-18 14:09:00,
2013-11-18 09:14:00,49.9,49.9,29.95,NNE,30,0.0,1.0,100,0.01,,OVC055,0.03,VWS V14.01,2013-11-18 14:14:00,
2013-11-18 09:19:00,50.0,50.0,29.95,NNE,30,0.0,1.0,100,0.01,,OVC055,0.03,VWS V14.01,2013-11-18 14:19:00,
2013-11-18 09:24:00,50.3,50.3,29.95,NNE,30,1.0,2.0,100,0.01,,OVC055,0.03,VWS V14.01,2013-11-18 14:24:00,
2013-11-18 09:29:00,50.8,50.8,29.95,NNE,30,1.0,1.0,100,0.00,,OVC055,0.03,VWS V14.01,2013-11-18 14:29:00,
2013-11-18 09:30:00,50.6,50.6,29.95,NNE,30,0.0,2.0,100,0.01,,OVC055,0.03,VWS V14.01,2013-11-18 14:30:00,
2013-11-18 09:34:00,51.6,51.6,29.95,NNE,30,1.0,1.0,100,0.00,,OVC055,0.03,VWS V14.01,2013-11-18 14:34:00,
2013-11-18 09:39:00,52.6,52.6,29.95,North,355,1.0,4.0,100,0.00,,OVC055,0.03,VWS V14.01,2013-11-18 14:39:00,
2013-11-18 09:44:00,53.3,53.3,29.95,North,360,2.0,4.0,100,0.00,,OVC055,0.03,VWS V14.01,2013-11-18 14:44:00,
2013-11-18 09:49:00,54.1,54.1,29.95,North,360,0.0,4.0,100,0.00,,OVC055,0.03,VWS V14.01,2013-11-18 14:49:00,
2013-11-18 09:54:00,54.5,54.2,29.95,North,360,0.0,4.0,99,0.00,,OVC055,0.03,VWS V14.01,2013-11-18 14:54:00,
2013-11-18 09:59:00,54.9,54.3,29.95,North,360,0.0,1.0,98,0.00,,OVC055,0.03,VWS V14.01,2013-11-18 14:59:00,
2013-11-18 10:00:00,54.9,54.6,29.95,North,360,0.0,4.0,99,0.00,,OVC055,0.03,VWS V14.01,2013-11-18 15:00:00,
2013-11-18 10:04:00,55.4,54.3,29.95,North,360,1.0,1.0,96,0.00,,OVC055,0.03,VWS V14.01,2013-11-18 15:04:00,
2013-11-18 10:09:00,56.1,54.7,29.95,North,360,0.0,1.0,95,0.00,,OVC055,0.03,VWS V14.01,2013-11-18 15:09:00,
2013-11-18 10:14:00,56.9,54.9,29.95,North,360,0.0,2.0,93,0.00,,OVC055,0.03,VWS V14.01,2013-11-18 15:14:00,
2013-11-18 10:19:00,58.1,55.5,29.95,North,360,0.0,2.0,91,0.00,,OVC055,0.03,VWS V14.01,2013-11-18 15:19:00,
2013-11-18 10:24:00,58.7,56.1,29.95,North,360,0.0,2.0,91,0.00,,OVC055,0.03,VWS V14.01,2013-11-18 15:24:00,
2013-11-18 10:29:00,59.4,56.2,29.95,North,360,0.0,0.0,89,0.00,,OVC055,0.03,VWS V14.01,2013-11-18 15:29:00,
2013-11-18 10:30:00,59.2,56.0,29.95,North,360,0.0,2.0,89,0.00,,OVC055,0.03,VWS V14.01,2013-11-18 15:30:00,
2013-11-18 10:34:00,59.9,56.3,29.94,North,360,0.0,1.0,88,0.00,,OVC055,0.03,VWS V14.01,2013-11-18 15:34:00,
2013-11-18 10:39:00,60.6,57.0,29.94,North,360,0.0,3.0,88,0.00,,OVC055,0.03,VWS V14.01,2013-11-18 15:39:00,
2013-11-18 10:44:00,61.3,57.1,29.94,North,360,0.0,3.0,86,0.00,,OVC055,0.03,VWS V14.01,2013-11-18 15:44:00,
2013-11-18 10:49:00,62.1,56.5,29.94,North,360,0.0,3.0,82,0.00,,OVC055,0.03,VWS V14.01,2013-11-18 15:49:00,
2013-11-18 10:51:00,62.2,57.0,29.94,North,360,0.0,3.0,83,0.00,,OVC055,0.03,VWS V14.01,2013-11-18 15:51:00,
2013-11-18 10:56:00,62.2,55.3,29.94,NW,323,1.0,5.0,78,0.00,,OVC055,0.03,VWS V14.01,2013-11-18 15:56:00,
2013-11-18 11:00:00,62.2,57.3,29.94,NW,323,1.0,5.0,84,0.00,,OVC055,0.03,VWS V14.01,2013-11-18 16:00:00,
2013-11-18 11:01:00,61.9,56.7,29.94,NW,323,1.0,2.0,83,0.00,,OVC055,0.03,VWS V14.01,2013-11-18 16:01:00,
2013-11-18 11:06:00,62.5,54.8,29.94,North,360,5.0,6.0,76,0.00,,OVC055,0.03,VWS V14.01,2013-11-18 16:06:00,
2013-11-18 11:11:00,63.2,54.4,29.93,NNW,348,4.0,6.0,73,0.00,,OVC055,0.03,VWS V14.01,2013-11-18 16:11:00,
2013-11-18 11:16:00,63.8,56.1,29.93,NNW,348,1.0,6.0,76,0.00,,OVC055,0.03,VWS V14.01,2013-11-18 16:16:00,
2013-11-18 11:21:00,63.9,54.3,29.93,NNW,348,0.0,6.0,71,0.00,,OVC055,0.03,VWS V14.01,2013-11-18 16:21:00,
2013-11-18 11:26:00,64.4,54.4,29.93,NNW,348,0.0,6.0,70,0.00,,OVC055,0.03,VWS V14.01,2013-11-18 16:26:00,
2013-11-18 11:30:00,64.8,54.4,29.93,NE,56,0.0,4.0,69,0.00,,OVC055,0.03,VWS V14.01,2013-11-18 16:30:00,
2013-11-18 11:35:00,65.0,53.8,29.93,NE,42,3.0,4.0,67,0.00,,OVC055,0.03,VWS V14.01,2013-11-18 16:35:00,
2013-11-18 11:40:00,65.2,51.9,29.92,NNW,333,2.0,7.0,62,0.00,,OVC055,0.03,VWS V14.01,2013-11-18 16:40:00,
2013-11-18 11:45:00,65.5,52.2,29.92,SSW,198,1.0,7.0,62,0.00,,OVC055,0.03,VWS V14.01,2013-11-18 16:45:00,
2013-11-18 11:50:00,66.0,55.2,29.92,West,269,2.0,7.0,68,0.00,,OVC055,0.03,VWS V14.01,2013-11-18 16:50:00,
2013-11-18 11:55:00,66.1,48.5,29.92,South,188,1.0,7.0,53,0.00,,OVC055,0.03,VWS V14.01,2013-11-18 16:55:00,
2013-11-18 12:00:00,66.1,48.0,29.92,WSW,254,0.0,4.0,52,0.00,,OVC055,0.03,VWS V14.01,2013-11-18 17:00:00,
2013-11-18 12:05:00,66.3,43.2,29.91,SSW,204,3.0,7.0,43,0.00,,OVC055,0.03,VWS V14.01,2013-11-18 17:05:00,
2013-11-18 12:10:00,66.4,46.7,29.92,NW,313,2.0,7.0,49,0.00,,OVC055,0.03,VWS V14.01,2013-11-18 17:10:00,
2013-11-18 12:15:00,66.7,47.0,29.92,NE,34,1.0,7.0,49,0.00,,OVC055,0.03,VWS V14.01,2013-11-18 17:15:00,
2013-11-18 12:20:00,67.0,43.8,29.91,West,267,3.0,7.0,43,0.00,,OVC055,0.03,VWS V14.01,2013-11-18 17:20:00,
2013-11-18 12:25:00,67.0,41.9,29.91,South,170,3.0,7.0,40,0.00,,OVC055,0.03,VWS V14.01,2013-11-18 17:25:00,
2013-11-18 12:30:00,66.8,41.7,29.91,SW,224,2.0,5.0,40,0.00,,OVC055,0.03,VWS V14.01,2013-11-18 17:30:00,
2013-11-18 12:35:00,66.7,44.1,29.91,SSW,198,2.0,9.0,44,0.00,,OVC055,0.03,VWS V14.01,2013-11-18 17:35:00,
2013-11-18 12:40:00,66.7,41.0,29.91,SSW,192,2.0,9.0,39,0.00,,OVC055,0.03,VWS V14.01,2013-11-18 17:40:00,
2013-11-18 12:45:00,67.0,43.8,29.92,North,355,3.0,9.0,43,0.00,,OVC055,0.03,VWS V14.01,2013-11-18 17:45:00,
2013-11-18 12:50:00,67.4,49.7,29.92,WNW,283,4.0,9.0,53,0.00,,OVC055,0.03,VWS V14.01,2013-11-18 17:50:00,
2013-11-18 12:55:00,66.5,49.8,29.92,NNE,29,3.0,9.0,55,0.00,,OVC055,0.03,VWS V14.01,2013-11-18 17:55:00,
2013-11-18 13:00:00,65.3,50.6,29.92,NNE,33,8.0,14.0,59,0.00,,OVC055,0.03,VWS V14.01,2013-11-18 18:00:00,
2013-11-18 13:05:00,64.6,51.3,29.92,NE,49,7.0,14.0,62,0.00,,OVC055,0.03,VWS V14.01,2013-11-18 18:05:00,
2013-11-18 13:10:00,64.5,50.8,29.93,NNE,26,5.0,14.0,61,0.00,,OVC055,0.03,VWS V14.01,2013-11-18 18:10:00,
2013-11-18 13:15:00,64.4,50.7,29.92,North,355,6.0,14.0,61,0.00,,OVC055,0.03,VWS V14.01,2013-11-18 18:15:00,
2013-11-18 13:20:00,64.3,50.1,29.93,NE,55,2.0,14.0,60,0.00,,OVC055,0.03,VWS V14.01,2013-11-18 18:20:00,
2013-11-18 13:25:00,64.2,50.9,29.93,East,80,2.0,14.0,62,0.00,,OVC055,0.03,VWS V14.01,2013-11-18 18:25:00,
2013-11-18 13:30:00,63.9,49.8,29.93,NNE,16,7.0,9.0,60,0.00,,OVC055,0.03,VWS V14.01,2013-11-18 18:30:00,
2013-11-18 13:35:00,63.5,50.7,29.93,East,79,2.0,11.0,63,0.00,,OVC055,0.03,VWS V14.01,2013-11-18 18:35:00,
2013-11-18 13:40:00,63.4,50.2,29.93,ENE,59,3.0,11.0,62,0.00,,OVC055,0.03,VWS V14.01,2013-11-18 18:40:00,
2013-11-18 13:45:00,63.3,49.6,29.92,ENE,63,3.0,11.0,61,0.00,,OVC055,0.03,VWS V14.01,2013-11-18 18:45:00,
2013-11-18 13:50:00,63.2,49.5,29.93,ENE,66,5.0,11.0,61,0.00,,OVC055,0.03,VWS V14.01,2013-11-18 18:50:00,
2013-11-18 13:55:00,63.1,49.9,29.93,ENE,63,2.0,11.0,62,0.00,,OVC055,0.03,VWS V14.01,2013-11-18 18:55:00,
2013-11-18 14:00:00,63.0,48.9,29.93,NE,50,3.0,7.0,60,0.00,,OVC055,0.03,VWS V14.01,2013-11-18 19:00:00,
2013-11-18 14:05:00,63.0,49.8,29.93,ENE,64,1.0,7.0,62,0.00,,OVC055,0.03,VWS V14.01,2013-11-18 19:05:00,
2013-11-18 14:10:00,62.7,48.2,29.93,NNE,32,9.0,10.0,59,0.00,,OVC055,0.03,VWS V14.01,2013-11-18 19:10:00,
2013-11-18 14:15:00,62.4,47.9,29.93,ENE,57,4.0,10.0,59,0.00,,OVC055,0.03,VWS V14.01,2013-11-18 19:15:00,
2013-11-18 14:20:00,62.3,47.8,29.93,ENE,60,4.0,10.0,59,0.00,,OVC055,0.03,VWS V14.01,2013-11-18 19:20:00,
2013-11-18 14:25:00,62.3,47.3,29.93,NE,55,2.0,10.0,58,0.00,,OVC055,0.03,VWS V14.01,2013-11-18 19:25:00,
2013-11-18 14:30:00,62.3,46.9,29.93,NE,49,3.0,4.0,57,0.00,,OVC055,0.03,VWS V14.01,2013-11-18 19:30:00,
2013-11-18 14:35:00,62.4,47.0,29.93,ENE,77,4.0,7.0,57,0.00,,OVC055,0.03,VWS V14.01,2013-11-18 19:35:00,
2013-11-18 14:40:00,62.6,46.7,29.92,NE,37,4.0,7.0,56,0.00,,OVC055,0.03,VWS V14.01,2013-11-18 19:40:00,
2013-11-18 14:45:00,62.6,47.6,29.92,ENE,58,3.0,7.0,58,0.00,,OVC055,0.03,VWS V14.01,2013-11-18 19:45:00,
2013-11-18 14:50:00,62.5,46.1,29.92,ENE,60,5.0,7.0,55,0.00,,OVC055,0.03,VWS V14.01,2013-11-18 19:50:00,
2013-11-18 14:55:00,62.6,49.0,29.92,ENE,65,0.0,7.0,61,0.00,,OVC055,0.03,VWS V14.01,2013-11-18 19:55:00,
2013-11-18 15:00:00,62.4,48.8,29.92,ENE,67,0.0,2.0,61,0.00,,OVC055,0.03,VWS V14.01,2013-11-18 20:00:00,
2013-11-18 15:05:00,62.2,47.3,29.93,ENE,67,0.0,2.0,58,0.00,,OVC055,0.03,VWS V14.01,2013-11-18 20:05:00,
2013-11-18 15:10:00,61.9,47.4,29.92,ENE,67,0.0,2.0,59,0.00,,OVC055,0.03,VWS V14.01,2013-11-18 20:10:00,
2013-11-18 15:15:00,61.6,47.6,29.92,ENE,68,0.0,3.0,60,0.00,,OVC055,0.03,VWS V14.01,2013-11-18 20:15:00,
2013-11-18 15:20:00,61.7,45.9,29.92,NNE,32,3.0,5.0,56,0.00,,OVC055,0.03,VWS V14.01,2013-11-18 20:20:00,
2013-11-18 15:25:00,62.4,41.9,29.92,NE,49,4.0,7.0,47,0.00,,OVC055,0.03,VWS V14.01,2013-11-18 20:25:00,
2013-11-18 15:30:00,62.7,43.3,29.92,ENE,67,0.0,4.0,49,0.00,,OVC055,0.03,VWS V14.01,2013-11-18 20:30:00,
2013-11-18 15:35:00,62.5,40.9,29.92,NNE,24,5.0,7.0,45,0.00,,OVC055,0.03,VWS V14.01,2013-11-18 20:35:00,
2013-11-18 15:40:00,62.5,40.3,29.92,NE,40,5.0,7.0,44,0.00,,OVC055,0.03,VWS V14.01,2013-11-18 20:40:00,
2013-11-18 15:45:00,62.6,40.4,29.92,NE,34,4.0,8.0,44,0.00,,OVC055,0.03,VWS V14.01,2013-11-18 20:45:00,
2013-11-18 15:50:00,62.6,39.2,29.92,NE,34,3.0,8.0,42,0.00,,OVC055,0.03,VWS V14.01,2013-11-18 20:50:00,
2013-11-18 15:55:00,62.5,38.5,29.92,NNE,17,6.0,8.0,41,0.00,,OVC055,0.03,VWS V14.01,2013-11-18 20:55:00,
2013-11-18 16:00:00,62.3,37.7,29.92,NNE,20,6.0,7.0,40,0.00,,OVC055,0.03,VWS V14.01,2013-11-18 21:00:00,
2013-11-18 16:05:00,62.2,37.0,29.93,NNE,30,3.0,10.0,39,0.00,,OVC055,0.03,VWS V14.01,2013-11-18 21:05:00,
2013-11-18 16:10:00,61.8,35.3,29.93,NNE,18,7.0,10.0,37,0.00,,OVC055,0.03,VWS V14.01,2013-11-18 21:10:00,
2013-11-18 16:15:00,61.5,37.0,29.93,North,360,6.0,10.0,40,0.00,,OVC055,0.03,VWS V14.01,2013-11-18 21:15:00,
2013-11-18 16:20:00,61.2,38.0,29.93,NNE,24,3.0,10.0,42,0.00,,OVC055,0.03,VWS V14.01,2013-11-18 21:20:00,
2013-11-18 16:25:00,60.9,35.8,29.93,NNE,33,1.0,10.0,39,0.00,,OVC055,0.03,VWS V14.01,2013-11-18 21:25:00,
2013-11-18 16:30:00,60.5,35.4,29.93,NE,34,2.0,7.0,39,0.00,,OVC055,0.03,VWS V14.01,2013-11-18 21:30:00,
2013-11-18 16:35:00,60.0,35.6,29.93,NNE,17,5.0,7.0,40,0.00,,OVC055,0.03,VWS V14.01,2013-11-18 21:35:00,
2013-11-18 16:40:00,59.7,37.2,29.93,NE,44,0.0,7.0,43,0.00,,OVC055,0.03,VWS V14.01,2013-11-18 21:40:00,
2013-11-18 16:45:00,59.2,37.9,29.93,NE,51,0.0,7.0,45,0.00,,OVC055,0.03,VWS V14.01,2013-11-18 21:45:00,
2013-11-18 16:50:00,58.8,38.1,29.93,NE,51,0.0,7.0,46,0.00,,OVC055,0.03,VWS V14.01,2013-11-18 21:50:00,
2013-11-18 16:55:00,58.0,37.9,29.93,East,98,0.0,7.0,47,0.00,,OVC055,0.03,VWS V14.01,2013-11-18 21:55:00,
2013-11-18 17:00:00,57.3,38.8,29.94,East,86,0.0,2.0,50,0.00,,OVC055,0.03,VWS V14.01,2013-11-18 22:00:00,
2013-11-18 17:05:00,56.9,36.9,29.94,NE,50,2.0,6.0,47,0.00,,OVC055,0.03,VWS V14.01,2013-11-18 22:05:00,
2013-11-18 17:10:00,56.9,37.4,29.94,East,100,1.0,6.0,48,0.00,,OVC055,0.03,VWS V14.01,2013-11-18 22:10:00,
2013-11-18 17:15:00,56.9,36.3,29.94,NNE,30,5.0,6.0,46,0.00,,OVC055,0.03,VWS V14.01,2013-11-18 22:15:00,
2013-11-18 17:20:00,57.0,37.5,29.94,ENE,60,0.0,7.0,48,0.00,,OVC055,0.03,VWS V14.01,2013-11-18 22:20:00,
2013-11-18 17:25:00,56.9,36.3,29.95,ENE,57,3.0,7.0,46,0.00,,OVC055,0.03,VWS V14.01,2013-11-18 22:25:00,
2013-11-18 17:30:00,56.9,36.3,29.95,ENE,57,3.0,5.0,46,0.00,,OVC055,0.03,VWS V14.01,2013-11-18 22:30:00,
2013-11-18 17:35:00,56.4,36.4,29.95,NNE,23,4.0,6.0,47,0.00,,OVC055,0.03,VWS V14.01,2013-11-18 22:35:00,
2013-11-18 17:40:00,55.9,36.5,29.95,NNE,16,5.0,6.0,48,0.00,,OVC055,0.03,VWS V14.01,2013-11-18 22:40:00,
2013-11-18 17:45:00,55.6,35.7,29.96,NE,38,9.0,11.0,47,0.00,,OVC055,0.03,VWS V14.01,2013-11-18 22:45:00,
2013-11-18 17:50:00,55.7,35.8,29.96,NE,39,6.0,11.0,47,0.00,,OVC055,0.03,VWS V14.01,2013-11-18 22:50:00,
2013-11-18 17:55:00,55.7,34.7,29.96,North,5,7.0,11.0,45,0.00,,OVC055,0.03,VWS V14.01,2013-11-18 22:55:00,
2013-11-18 18:00:00,55.6,35.2,29.96,North,11,7.0,7.0,46,0.00,,OVC055,0.03,VWS V14.01,2013-11-18 23:00:00,
2013-11-18 18:05:00,55.3,34.9,29.96,NNE,21,2.0,8.0,46,0.00,,OVC055,0.03,VWS V14.01,2013-11-18 23:05:00,
2013-11-18 18:10:00,55.1,34.7,29.96,NNE,15,3.0,8.0,46,0.00,,OVC055,0.03,VWS V14.01,2013-11-18 23:10:00,
2013-11-18 18:15:00,54.8,34.4,29.96,North,5,4.0,8.0,46,0.00,,OVC055,0.03,VWS V14.01,2013-11-18 23:15:00,
2013-11-18 18:20:00,54.6,34.2,29.96,NNE,24,1.0,8.0,46,0.00,,OVC055,0.03,VWS V14.01,2013-11-18 23:20:00,
2013-11-18 18:25:00,54.2,34.4,29.97,NE,50,3.0,8.0,47,0.00,,OVC055,0.03,VWS V14.01,2013-11-18 23:25:00,
2013-11-18 18:29:00,53.8,35.1,29.97,NNE,28,4.0,5.0,49,0.00,,OVC055,0.03,VWS V14.01,2013-11-18 23:29:00,
2013-11-18 18:30:00,54.0,35.3,29.97,NNE,27,0.0,8.0,49,0.00,,OVC055,0.03,VWS V14.01,2013-11-18 23:30:00,
2013-11-18 18:34:00,53.3,35.2,29.97,NE,39,2.0,5.0,50,0.00,,OVC055,0.03,VWS V14.01,2013-11-18 23:34:00,
2013-11-18 18:39:00,52.9,34.3,29.97,NE,40,0.0,5.0,49,0.00,,OVC055,0.03,VWS V14.01,2013-11-18 23:39:00,
2013-11-18 18:44:00,52.3,35.2,29.97,NE,40,1.0,5.0,52,0.00,,OVC055,0.03,VWS V14.01,2013-11-18 23:44:00,
2013-11-18 18:49:00,51.6,34.6,29.97,South,169,0.0,5.0,52,0.00,,OVC055,0.03,VWS V14.01,2013-11-18 23:49:00,
2013-11-18 18:54:00,51.2,33.7,29.97,SSE,167,2.0,5.0,51,0.00,,OVC055,0.03,VWS V14.01,2013-11-18 23:54:00,
2013-11-18 18:59:00,50.7,33.7,29.97,SSE,167,0.0,2.0,52,0.00,,OVC055,0.03,VWS V14.01,2013-11-18 23:59:00,
2013-11-18 19:00:00,50.9,33.9,29.97,SSE,167,0.0,5.0,52,0.00,,OVC055,0.03,VWS V14.01,2013-11-19 00:00:00,
2013-11-18 19:04:00,50.5,33.5,29.97,SE,128,2.0,4.0,52,0.00,,OVC055,0.03,VWS V14.01,2013-11-19 00:04:00,
2013-11-18 19:09:00,50.3,34.3,29.97,SSE,156,0.0,4.0,54,0.00,,OVC055,0.03,VWS V14.01,2013-11-19 00:09:00,
2013-11-18 19:14:00,50.1,33.7,29.97,South,171,0.0,4.0,53,0.00,,OVC055,0.03,VWS V14.01,2013-11-19 00:14:00,
2013-11-18 19:19:00,50.1,32.7,29.97,East,94,3.0,4.0,51,0.00,,OVC055,0.03,VWS V14.01,2013-11-19 00:19:00,
2013-11-18 19:24:00,50.4,32.5,29.97,NE,34,2.0,4.0,50,0.00,,OVC055,0.03,VWS V14.01,2013-11-19 00:24:00,
2013-11-18 19:29:00,50.7,33.7,29.98,North,9,1.0,2.0,52,0.00,,OVC055,0.03,VWS V14.01,2013-11-19 00:29:00,
2013-11-18 19:30:00,50.7,34.2,29.97,NNE,13,1.0,4.0,53,0.00,,OVC055,0.03,VWS V14.01,2013-11-19 00:30:00,
2013-11-18 19:34:00,51.0,33.5,29.98,North,5,0.0,6.0,51,0.00,,OVC055,0.03,VWS V14.01,2013-11-19 00:34:00,
2013-11-18 19:39:00,50.8,33.3,29.98,NNE,15,4.0,6.0,51,0.00,,OVC055,0.03,VWS V14.01,2013-11-19 00:39:00,
2013-11-18 19:44:00,51.4,32.9,29.98,NNE,13,1.0,11.0,49,0.00,,OVC055,0.03,VWS V14.01,2013-11-19 00:44:00,
2013-11-18 19:49:00,51.2,33.7,29.98,NW,315,0.0,11.0,51,0.00,,OVC055,0.03,VWS V14.01,2013-11-19 00:49:00,
2013-11-18 19:54:00,51.0,32.0,29.98,NE,34,6.0,11.0,48,0.00,,OVC055,0.03,VWS V14.01,2013-11-19 00:54:00,
2013-11-18 19:59:00,52.2,32.1,29.98,NNE,23,5.0,6.0,46,0.00,,OVC055,0.03,VWS V14.01,2013-11-19 00:59:00,
2013-11-18 20:00:00,51.9,32.3,29.98,NNE,31,3.0,11.0,47,0.00,,OVC055,0.03,VWS V14.01,2013-11-19 01:00:00,
2013-11-18 20:04:00,52.3,32.2,29.99,NNW,348,4.0,8.0,46,0.00,,OVC055,0.03,VWS V14.01,2013-11-19 01:04:00,
2013-11-18 20:09:00,51.9,32.3,29.99,NE,41,4.0,8.0,47,0.00,,OVC055,0.03,VWS V14.01,2013-11-19 01:09:00,
2013-11-18 20:14:00,51.5,32.5,29.99,NE,56,2.0,8.0,48,0.00,,OVC055,0.03,VWS V14.01,2013-11-19 01:14:00,
2013-11-18 20:19:00,51.5,33.0,29.99,NNE,33,4.0,13.0,49,0.00,,OVC055,0.03,VWS V14.01,2013-11-19 01:19:00,
2013-11-18 20:24:00,51.4,33.4,29.99,NNE,31,4.0,13.0,50,0.00,,OVC055,0.03,VWS V14.01,2013-11-19 01:24:00,
2013-11-18 20:29:00,50.9,33.4,29.99,NNE,24,2.0,3.0,51,0.00,,OVC055,0.03,VWS V14.01,2013-11-19 01:29:00,
2013-11-18 20:30:00,51.0,33.5,29.99,NNE,22,3.0,13.0,51,0.00,,OVC055,0.03,VWS V14.01,2013-11-19 01:30:00,
2013-11-18 20:34:00,50.7,33.7,29.99,ENE,57,4.0,6.0,52,0.00,,OVC055,0.03,VWS V14.01,2013-11-19 01:34:00,
2013-11-18 20:39:00,50.7,33.7,30.00,NE,36,3.0,7.0,52,0.00,,OVC055,0.03,VWS V14.01,2013-11-19 01:39:00,
2013-11-18 20:44:00,50.5,34.0,30.00,ENE,78,3.0,7.0,53,0.00,,OVC055,0.03,VWS V14.01,2013-11-19 01:44:00,
2013-11-18 20:49:00,50.4,33.5,30.00,NE,42,5.0,8.0,52,0.00,,OVC055,0.03,VWS V14.01,2013-11-19 01:49:00,
2013-11-18 20:54:00,50.3,33.8,30.00,NE,42,4.0,11.0,53,0.00,,OVC055,0.03,VWS V14.01,2013-11-19 01:54:00,
2013-11-18 20:59:00,50.2,33.7,30.00,NE,35,4.0,7.0,53,0.00,,OVC055,0.03,VWS V14.01,2013-11-19 01:59:00,
2013-11-18 21:00:00,50.2,33.7,30.00,NE,38,6.0,11.0,53,0.00,,OVC055,0.03,VWS V14.01,2013-11-19 02:00:00,
2013-11-18 21:04:00,50.2,33.3,30.00,NNE,30,2.0,10.0,52,0.00,,OVC055,0.03,VWS V14.01,2013-11-19 02:04:00,
2013-11-18 21:09:00,50.0,34.0,30.00,NE,43,4.0,10.0,54,0.00,,OVC055,0.03,VWS V14.01,2013-11-19 02:09:00,
2013-11-18 21:14:00,49.7,33.3,30.01,NE,36,5.0,10.0,53,0.00,,OVC055,0.03,VWS V14.01,2013-11-19 02:14:00,
2013-11-18 21:19:00,49.5,34.0,30.01,NNE,15,4.0,10.0,55,0.00,,OVC055,0.03,VWS V14.01,2013-11-19 02:19:00,
2013-11-18 21:24:00,49.5,34.5,30.01,East,96,2.0,10.0,56,0.00,,OVC055,0.03,VWS V14.01,2013-11-19 02:24:00,
2013-11-18 21:29:00,49.4,33.9,30.01,NNE,22,4.0,5.0,55,0.00,,OVC055,0.03,VWS V14.01,2013-11-19 02:29:00,
2013-11-18 21:30:00,49.4,33.9,30.01,ENE,71,3.0,10.0,55,0.00,,OVC055,0.03,VWS V14.01,2013-11-19 02:30:00,
2013-11-18 21:34:00,49.2,34.2,30.01,NNE,19,2.0,5.0,56,0.00,,OVC055,0.03,VWS V14.01,2013-11-19 02:34:00,
2013-11-18 21:39:00,48.9,34.3,30.01,NNE,32,4.0,7.0,57,0.00,,OVC055,0.03,VWS V14.01,2013-11-19 02:39:00,
2013-11-18 21:44:00,48.8,33.8,30.02,NNW,331,9.0,12.0,56,0.00,,OVC055,0.03,VWS V14.01,2013-11-19 02:44:00,
2013-11-18 21:49:00,49.1,34.1,30.02,NNE,15,10.0,13.0,56,0.00,,OVC055,0.03,VWS V14.01,2013-11-19 02:49:00,
2013-11-18 21:54:00,49.1,34.5,30.02,NE,53,6.0,13.0,57,0.00,,OVC055,0.03,VWS V14.01,2013-11-19 02:54:00,
2013-11-18 21:59:00,48.9,34.3,30.02,NNE,14,4.0,7.0,57,0.00,,OVC055,0.03,VWS V14.01,2013-11-19 02:59:00,
2013-11-18 22:00:00,49.0,34.5,30.02,North,5,7.0,13.0,57,0.00,,OVC055,0.03,VWS V14.01,2013-11-19 03:00:00,
2013-11-18 22:04:00,48.6,34.5,30.02,NE,42,6.0,8.0,58,0.00,,OVC055,0.03,VWS V14.01,2013-11-19 03:04:00,
2013-11-18 22:08:00,48.5,34.4,30.02,NNE,13,7.0,9.0,58,0.00,,OVC055,0.03,VWS V14.01,2013-11-19 03:08:00,
2013-11-18 22:13:00,48.5,34.8,30.02,NE,56,4.0,9.0,59,0.00,,OVC055,0.03,VWS V14.01,2013-11-19 03:13:00,
2013-11-18 22:18:00,48.5,34.8,30.02,ENE,61,5.0,9.0,59,0.00,,OVC055,0.03,VWS V14.01,2013-11-19 03:18:00,
2013-11-18 22:23:00,48.4,34.8,30.02,NE,49,4.0,9.0,59,0.00,,OVC055,0.03,VWS V14.01,2013-11-19 03:23:00,
2013-11-18 22:28:00,48.4,34.3,30.02,ENE,66,4.0,4.0,58,0.00,,OVC055,0.03,VWS V14.01,2013-11-19 03:28:00,
2013-11-18 22:30:00,48.4,34.3,30.02,NE,42,4.0,9.0,58,0.00,,OVC055,0.03,VWS V14.01,2013-11-19 03:30:00,
2013-11-18 22:33:00,48.2,34.6,30.02,NE,44,4.0,10.0,59,0.00,,OVC055,0.03,VWS V14.01,2013-11-19 03:33:00,
2013-11-18 22:38:00,48.0,33.9,30.02,NNE,32,5.0,10.0,58,0.00,,OVC055,0.03,VWS V14.01,2013-11-19 03:38:00,
2013-11-18 22:43:00,47.9,33.8,30.02,North,9,7.0,11.0,58,0.00,,OVC055,0.03,VWS V14.01,2013-11-19 03:43:00,
2013-11-18 22:48:00,47.8,34.6,30.02,NE,36,7.0,11.0,60,0.00,,OVC055,0.03,VWS V14.01,2013-11-19 03:48:00,
2013-11-18 22:53:00,47.8,34.2,30.02,NNE,15,7.0,11.0,59,0.00,,OVC055,0.03,VWS V14.01,2013-11-19 03:53:00,
2013-11-18 22:58:00,47.7,34.1,30.03,NE,35,5.0,6.0,59,0.00,,OVC055,0.03,VWS V14.01,2013-11-19 03:58:00,
2013-11-18 23:00:00,47.8,34.2,30.03,North,10,5.0,11.0,59,0.00,,OVC055,0.03,VWS V14.01,2013-11-19 04:00:00,
2013-11-18 23:03:00,47.6,33.6,30.03,NE,53,2.0,10.0,58,0.00,,OVC055,0.03,VWS V14.01,2013-11-19 04:03:00,
2013-11-18 23:07:00,47.8,33.3,30.03,NE,42,7.0,11.0,57,0.00,,OVC055,0.03,VWS V14.01,2013-11-19 04:07:00,
2013-11-18 23:12:00,47.8,33.3,30.03,ENE,62,8.0,13.0,57,0.00,,OVC055,0.03,VWS V14.01,2013-11-19 04:12:00,
2013-11-18 23:17:00,47.8,32.4,30.03,NNE,32,6.0,13.0,55,0.00,,OVC055,0.03,VWS V14.01,2013-11-19 04:17:00,
2013-11-18 23:22:00,47.7,32.3,30.03,NE,42,7.0,13.0,55,0.00,,OVC055,0.03,VWS V14.01,2013-11-19 04:22:00,
2013-11-18 23:27:00,47.7,32.3,30.03,NE,36,9.0,13.0,55,0.00,,OVC055,0.03,VWS V14.01,2013-11-19 04:27:00,
2013-11-18 23:30:00,47.6,32.2,30.03,NE,36,7.0,13.0,55,0.00,,OVC055,0.03,VWS V14.01,2013-11-19 04:30:00,
2013-11-18 23:32:00,47.6,32.2,30.03,NNE,31,14.0,14.0,55,0.00,,OVC055,0.03,VWS V14.01,2013-11-19 04:32:00,
2013-11-18 23:36:00,47.5,32.2,30.03,NE,40,2.0,14.0,55,0.00,,OVC055,0.03,VWS V14.01,2013-11-19 04:36:00,
2013-11-18 23:41:00,47.4,32.5,30.04,NE,51,3.0,14.0,56,0.00,,OVC055,0.03,VWS V14.01,2013-11-19 04:41:00,
2013-11-18 23:46:00,47.2,32.3,30.04,NE,40,6.0,14.0,56,0.00,,OVC055,0.03,VWS V14.01,2013-11-19 04:46:00,
2013-11-18 23:51:00,47.1,32.2,30.04,North,11,8.0,14.0,56,0.00,,OVC055,0.03,VWS V14.01,2013-11-19 04:51:00,
2013-11-18 23:56:00,47.1,32.2,30.03,NE,34,8.0,14.0,56,0.00,,OVC055,0.03,VWS V14.01,2013-11-19 04:56:00,